owner,sensor,date,latitude,longitude,air_temperature,qcFlag 
TABS,ioos:station:wmo:42044:1,2002-08-01T00:09:00Z,26.1914,-97.0507,27.7,11144222 
TABS,ioos:station:wmo:42044:1,2002-08-01T00:39:00Z,26.1914,-97.0507,27.8,11144222 
TABS,ioos:station:wmo:42044:1,2002-08-01T01:39:00Z,26.1914,-97.0507,27.5,11144222 
TABS,ioos:station:wmo:42044:1,2002-08-01T02:09:00Z,26.1914,-97.0507,27.5,11144222 
TABS,ioos:station:wmo:42044:1,2002-08-01T05:39:00Z,26.1914,-97.0507,27.5,11144222 
TABS,ioos:station:wmo:42044:1,2002-08-01T07:39:00Z,26.1914,-97.0507,27.3,11144222 
TABS,ioos:station:wmo:42044:1,2002-08-01T08:09:00Z,26.1914,-97.0507,27.4,11144222 
TABS,ioos:station:wmo:42044:1,2002-08-01T10:09:00Z,26.1914,-97.0507,27.3,11144222 
TABS,ioos:station:wmo:42044:1,2002-08-01T11:09:00Z,26.1914,-97.0507,27.5,11144222 
TABS,ioos:station:wmo:42044:1,2002-08-01T11:39:00Z,26.1914,-97.0507,27.4,11144222 
TABS,ioos:station:wmo:42044:1,2002-08-01T12:39:00Z,26.1914,-97.0507,27.6,11144222 
TABS,ioos:station:wmo:42044:1,2002-08-01T15:39:00Z,26.1914,-97.0507,27.6,11144222 
TABS,ioos:station:wmo:42044:1,2002-08-01T16:09:00Z,26.1914,-97.0507,27.7,11144222 
TABS,ioos:station:wmo:42044:1,2002-08-01T16:39:00Z,26.1914,-97.0507,27.7,11144222 
TABS,ioos:station:wmo:42044:1,2002-08-01T17:09:00Z,26.1914,-97.0507,27.7,11144222 
TABS,ioos:station:wmo:42044:1,2002-08-01T18:39:00Z,26.1914,-97.0507,27.9,11144222 
TABS,ioos:station:wmo:42044:1,2002-08-01T19:09:00Z,26.1914,-97.0507,27.9,11144222 
TABS,ioos:station:wmo:42044:1,2002-08-01T19:39:00Z,26.1914,-97.0507,28.0,11144222 
TABS,ioos:station:wmo:42044:1,2002-08-01T22:09:00Z,26.1914,-97.0507,28.2,11144222 
TABS,ioos:station:wmo:42044:1,2002-08-01T23:39:00Z,26.1914,-97.0507,28.3,11144222 
TABS,ioos:station:wmo:42044:1,2002-08-02T00:39:00Z,26.1914,-97.0507,28.1,11144222 
TABS,ioos:station:wmo:42044:1,2002-08-02T01:39:00Z,26.1914,-97.0507,27.9,11144222 
TABS,ioos:station:wmo:42044:1,2002-08-02T03:39:00Z,26.1914,-97.0507,27.7,11144222 
TABS,ioos:station:wmo:42044:1,2002-08-02T04:39:00Z,26.1914,-97.0507,27.7,11144222 
TABS,ioos:station:wmo:42044:1,2002-08-02T05:09:00Z,26.1914,-97.0507,27.6,11144222 
TABS,ioos:station:wmo:42044:1,2002-08-02T05:39:00Z,26.1914,-97.0507,27.5,11144222 
TABS,ioos:station:wmo:42044:1,2002-08-02T08:09:00Z,26.1914,-97.0507,27.8,11144222 
TABS,ioos:station:wmo:42044:1,2002-08-02T11:09:00Z,26.1914,-97.0507,27.4,11144222 
TABS,ioos:station:wmo:42044:1,2002-08-02T13:39:00Z,26.1914,-97.0507,27.9,11144222 
TABS,ioos:station:wmo:42044:1,2002-08-02T16:09:00Z,26.1914,-97.0507,28.1,11144222 
TABS,ioos:station:wmo:42044:1,2002-08-02T18:39:00Z,26.1914,-97.0507,28.3,11144222 
TABS,ioos:station:wmo:42044:1,2002-08-02T20:09:00Z,26.1914,-97.0507,28.7,11144222 
TABS,ioos:station:wmo:42044:1,2002-08-02T23:39:00Z,26.1914,-97.0507,28.9,11144222 
TABS,ioos:station:wmo:42044:1,2002-08-03T00:09:00Z,26.1914,-97.0507,28.8,11144222 
TABS,ioos:station:wmo:42044:1,2002-08-03T00:39:00Z,26.1914,-97.0507,28.7,11144222 
TABS,ioos:station:wmo:42044:1,2002-08-03T01:39:00Z,26.1914,-97.0507,28.5,11144222 
TABS,ioos:station:wmo:42044:1,2002-08-03T03:09:00Z,26.1914,-97.0507,28.3,11144222 
TABS,ioos:station:wmo:42044:1,2002-08-03T05:39:00Z,26.1914,-97.0507,27.9,11144222 
TABS,ioos:station:wmo:42044:1,2002-08-03T10:09:00Z,26.1914,-97.0507,27.4,11144222 
TABS,ioos:station:wmo:42044:1,2002-08-03T10:39:00Z,26.1914,-97.0507,27.3,11144222 
TABS,ioos:station:wmo:42044:1,2002-08-03T11:09:00Z,26.1914,-97.0507,27.3,11144222 
TABS,ioos:station:wmo:42044:1,2002-08-03T12:39:00Z,26.1914,-97.0507,27.4,11144222 
TABS,ioos:station:wmo:42044:1,2002-08-03T13:09:00Z,26.1914,-97.0507,27.5,11144222 
TABS,ioos:station:wmo:42044:1,2002-08-03T14:09:00Z,26.1914,-97.0507,28.1,11144222 
TABS,ioos:station:wmo:42044:1,2002-08-03T15:09:00Z,26.1914,-97.0507,28.2,11144222 
TABS,ioos:station:wmo:42044:1,2002-08-03T15:39:00Z,26.1914,-97.0507,28.2,11144222 
TABS,ioos:station:wmo:42044:1,2002-08-03T18:09:00Z,26.1914,-97.0507,28.5,11144222 
TABS,ioos:station:wmo:42044:1,2002-08-03T19:09:00Z,26.1914,-97.0507,28.5,11144222 
TABS,ioos:station:wmo:42044:1,2002-08-03T19:39:00Z,26.1914,-97.0507,28.7,11144222 
TABS,ioos:station:wmo:42044:1,2002-08-03T21:09:00Z,26.1914,-97.0507,28.8,11144222 
TABS,ioos:station:wmo:42044:1,2002-08-03T22:09:00Z,26.1914,-97.0507,28.9,11144222 
TABS,ioos:station:wmo:42044:1,2002-08-03T23:09:00Z,26.1914,-97.0507,28.9,11144222 
TABS,ioos:station:wmo:42044:1,2002-08-03T23:39:00Z,26.1914,-97.0507,29.1,11144222 
TABS,ioos:station:wmo:42044:1,2002-08-04T01:39:00Z,26.1914,-97.0507,27.9,11144222 
TABS,ioos:station:wmo:42044:1,2002-08-04T02:39:00Z,26.1914,-97.0507,28.0,11144222 
TABS,ioos:station:wmo:42044:1,2002-08-04T03:39:00Z,26.1914,-97.0507,28.1,11144222 
TABS,ioos:station:wmo:42044:1,2002-08-04T05:09:00Z,26.1914,-97.0507,28.1,11144222 
TABS,ioos:station:wmo:42044:1,2002-08-04T05:39:00Z,26.1914,-97.0507,28.1,11144222 
TABS,ioos:station:wmo:42044:1,2002-08-04T06:39:00Z,26.1914,-97.0507,27.8,11144222 
TABS,ioos:station:wmo:42044:1,2002-08-04T07:09:00Z,26.1914,-97.0507,27.7,11144222 
TABS,ioos:station:wmo:42044:1,2002-08-04T07:39:00Z,26.1914,-97.0507,27.7,11144222 
TABS,ioos:station:wmo:42044:1,2002-08-04T08:39:00Z,26.1914,-97.0507,27.8,11144222 
TABS,ioos:station:wmo:42044:1,2002-08-04T10:09:00Z,26.1914,-97.0507,27.4,11144222 
TABS,ioos:station:wmo:42044:1,2002-08-04T11:09:00Z,26.1914,-97.0507,26.4,11144222 
TABS,ioos:station:wmo:42044:1,2002-08-04T12:39:00Z,26.1914,-97.0507,27.2,11144222 
TABS,ioos:station:wmo:42044:1,2002-08-04T13:39:00Z,26.1914,-97.0507,28.5,11144222 
TABS,ioos:station:wmo:42044:1,2002-08-04T15:09:00Z,26.1914,-97.0507,28.0,11144222 
TABS,ioos:station:wmo:42044:1,2002-08-04T15:39:00Z,26.1914,-97.0507,28.1,11144222 
TABS,ioos:station:wmo:42044:1,2002-08-04T16:39:00Z,26.1914,-97.0507,28.4,11144222 
TABS,ioos:station:wmo:42044:1,2002-08-04T17:09:00Z,26.1914,-97.0507,28.6,11144222 
TABS,ioos:station:wmo:42044:1,2002-08-04T18:39:00Z,26.1914,-97.0507,28.3,11144222 
TABS,ioos:station:wmo:42044:1,2002-08-04T19:09:00Z,26.1914,-97.0507,28.4,11144222 
TABS,ioos:station:wmo:42044:1,2002-08-04T21:39:00Z,26.1914,-97.0507,28.8,11144222 
TABS,ioos:station:wmo:42044:1,2002-08-04T22:39:00Z,26.1914,-97.0507,29.0,11144222 
TABS,ioos:station:wmo:42044:1,2002-08-04T23:09:00Z,26.1914,-97.0507,29.0,11144222 
TABS,ioos:station:wmo:42044:1,2002-08-04T23:39:00Z,26.1914,-97.0507,29.1,11144222 
TABS,ioos:station:wmo:42044:1,2002-08-05T00:39:00Z,26.1914,-97.0507,29.0,11144222 
TABS,ioos:station:wmo:42044:1,2002-08-05T01:09:00Z,26.1914,-97.0507,29.0,11144222 
TABS,ioos:station:wmo:42044:1,2002-08-05T02:09:00Z,26.1914,-97.0507,29.0,11144222 
TABS,ioos:station:wmo:42044:1,2002-08-05T03:09:00Z,26.1914,-97.0507,28.9,11144222 
TABS,ioos:station:wmo:42044:1,2002-08-05T03:39:00Z,26.1914,-97.0507,28.8,11144222 
TABS,ioos:station:wmo:42044:1,2002-08-05T04:09:00Z,26.1914,-97.0507,28.8,11144222 
TABS,ioos:station:wmo:42044:1,2002-08-05T04:39:00Z,26.1914,-97.0507,28.7,11144222 
TABS,ioos:station:wmo:42044:1,2002-08-05T05:09:00Z,26.1914,-97.0507,28.5,11144222 
TABS,ioos:station:wmo:42044:1,2002-08-05T05:39:00Z,26.1914,-97.0507,28.4,11144222 
TABS,ioos:station:wmo:42044:1,2002-08-05T06:09:00Z,26.1914,-97.0507,28.5,11144222 
TABS,ioos:station:wmo:42044:1,2002-08-05T06:39:00Z,26.1914,-97.0507,28.4,11144222 
TABS,ioos:station:wmo:42044:1,2002-08-05T07:39:00Z,26.1914,-97.0507,28.7,11144222 
TABS,ioos:station:wmo:42044:1,2002-08-05T08:39:00Z,26.1914,-97.0507,28.0,11144222 
TABS,ioos:station:wmo:42044:1,2002-08-05T09:09:00Z,26.1914,-97.0507,27.2,11144222 
TABS,ioos:station:wmo:42044:1,2002-08-05T10:09:00Z,26.1914,-97.0507,27.9,11144222 
TABS,ioos:station:wmo:42044:1,2002-08-05T11:09:00Z,26.1914,-97.0507,27.3,11144222 
TABS,ioos:station:wmo:42044:1,2002-08-05T12:09:00Z,26.1914,-97.0507,27.5,11144222 
TABS,ioos:station:wmo:42044:1,2002-08-05T12:39:00Z,26.1914,-97.0507,27.8,11144222 
TABS,ioos:station:wmo:42044:1,2002-08-05T13:09:00Z,26.1914,-97.0507,28.5,11144222 
TABS,ioos:station:wmo:42044:1,2002-08-05T14:39:00Z,26.1914,-97.0507,28.8,11144222 
TABS,ioos:station:wmo:42044:1,2002-08-05T15:09:00Z,26.1914,-97.0507,28.4,11144222 
TABS,ioos:station:wmo:42044:1,2002-08-05T17:39:00Z,26.1914,-97.0507,28.4,11144222 
TABS,ioos:station:wmo:42044:1,2002-08-05T18:39:00Z,26.1914,-97.0507,28.6,11144222 
TABS,ioos:station:wmo:42044:1,2002-08-05T19:09:00Z,26.1914,-97.0507,28.6,11144222 
TABS,ioos:station:wmo:42044:1,2002-08-05T19:39:00Z,26.1914,-97.0507,28.6,11144222 
TABS,ioos:station:wmo:42044:1,2002-08-05T20:09:00Z,26.1914,-97.0507,28.5,11144222 
TABS,ioos:station:wmo:42044:1,2002-08-05T21:09:00Z,26.1914,-97.0507,28.6,11144222 
TABS,ioos:station:wmo:42044:1,2002-08-05T22:39:00Z,26.1914,-97.0507,29.0,11144222 
TABS,ioos:station:wmo:42044:1,2002-08-05T23:09:00Z,26.1914,-97.0507,29.0,11144222 
TABS,ioos:station:wmo:42044:1,2002-08-05T23:39:00Z,26.1914,-97.0507,29.1,11144222 
TABS,ioos:station:wmo:42044:1,2002-08-06T00:09:00Z,26.1914,-97.0507,29.1,11144222 
TABS,ioos:station:wmo:42044:1,2002-08-06T00:39:00Z,26.1914,-97.0507,29.1,11144222 
TABS,ioos:station:wmo:42044:1,2002-08-06T01:39:00Z,26.1914,-97.0507,29.1,11144222 
TABS,ioos:station:wmo:42044:1,2002-08-06T02:09:00Z,26.1914,-97.0507,29.0,11144222 
TABS,ioos:station:wmo:42044:1,2002-08-06T03:09:00Z,26.1914,-97.0507,28.9,11144222 
TABS,ioos:station:wmo:42044:1,2002-08-06T05:09:00Z,26.1914,-97.0507,28.8,11144222 
TABS,ioos:station:wmo:42044:1,2002-08-06T05:39:00Z,26.1914,-97.0507,28.9,11144222 
TABS,ioos:station:wmo:42044:1,2002-08-06T06:09:00Z,26.1914,-97.0507,28.9,11144222 
TABS,ioos:station:wmo:42044:1,2002-08-06T06:39:00Z,26.1914,-97.0507,28.8,11144222 
TABS,ioos:station:wmo:42044:1,2002-08-06T07:39:00Z,26.1914,-97.0507,28.7,11144222 
TABS,ioos:station:wmo:42044:1,2002-08-06T08:39:00Z,26.1914,-97.0507,28.6,11144222 
TABS,ioos:station:wmo:42044:1,2002-08-06T10:09:00Z,26.1914,-97.0507,28.5,11144222 
TABS,ioos:station:wmo:42044:1,2002-08-06T10:39:00Z,26.1914,-97.0507,28.6,11144222 
TABS,ioos:station:wmo:42044:1,2002-08-06T11:09:00Z,26.1914,-97.0507,28.6,11144222 
TABS,ioos:station:wmo:42044:1,2002-08-06T11:39:00Z,26.1914,-97.0507,28.3,11144222 
TABS,ioos:station:wmo:42044:1,2002-08-06T12:39:00Z,26.1914,-97.0507,28.4,11144222 
TABS,ioos:station:wmo:42044:1,2002-08-06T13:09:00Z,26.1914,-97.0507,28.7,11144222 
TABS,ioos:station:wmo:42044:1,2002-08-06T13:39:00Z,26.1914,-97.0507,28.7,11144222 
TABS,ioos:station:wmo:42044:1,2002-08-06T16:09:00Z,26.1914,-97.0507,29.3,11144222 
TABS,ioos:station:wmo:42044:1,2002-08-06T17:09:00Z,26.1914,-97.0507,29.1,11144222 
TABS,ioos:station:wmo:42044:1,2002-08-06T17:39:00Z,26.1914,-97.0507,29.0,11144222 
TABS,ioos:station:wmo:42044:1,2002-08-06T18:39:00Z,26.1914,-97.0507,29.0,11144222 
TABS,ioos:station:wmo:42044:1,2002-08-06T19:09:00Z,26.1914,-97.0507,29.0,11144222 
TABS,ioos:station:wmo:42044:1,2002-08-06T19:39:00Z,26.1914,-97.0507,29.0,11144222 
TABS,ioos:station:wmo:42044:1,2002-08-06T20:09:00Z,26.1914,-97.0507,29.1,11144222 
TABS,ioos:station:wmo:42044:1,2002-08-06T20:39:00Z,26.1914,-97.0507,29.1,11144222 
TABS,ioos:station:wmo:42044:1,2002-08-06T21:09:00Z,26.1914,-97.0507,29.2,11144222 
TABS,ioos:station:wmo:42044:1,2002-08-06T22:09:00Z,26.1914,-97.0507,29.5,11144222 
TABS,ioos:station:wmo:42044:1,2002-08-07T00:39:00Z,26.1914,-97.0507,29.5,11144222 
TABS,ioos:station:wmo:42044:1,2002-08-07T01:09:00Z,26.1914,-97.0507,29.3,11144222 
TABS,ioos:station:wmo:42044:1,2002-08-07T02:09:00Z,26.1914,-97.0507,29.3,11144222 
TABS,ioos:station:wmo:42044:1,2002-08-07T03:09:00Z,26.1914,-97.0507,29.1,11144222 
TABS,ioos:station:wmo:42044:1,2002-08-07T06:09:00Z,26.1914,-97.0507,29.0,11144222 
TABS,ioos:station:wmo:42044:1,2002-08-07T08:39:00Z,26.1914,-97.0507,28.6,11144222 
TABS,ioos:station:wmo:42044:1,2002-08-07T10:09:00Z,26.1914,-97.0507,28.4,11144222 
TABS,ioos:station:wmo:42044:1,2002-08-07T12:09:00Z,26.1914,-97.0507,28.1,11144222 
TABS,ioos:station:wmo:42044:1,2002-08-07T13:39:00Z,26.1914,-97.0507,28.4,11144222 
TABS,ioos:station:wmo:42044:1,2002-08-07T15:09:00Z,26.1914,-97.0507,28.6,11144222 
TABS,ioos:station:wmo:42044:1,2002-08-07T15:39:00Z,26.1914,-97.0507,28.6,11144222 
TABS,ioos:station:wmo:42044:1,2002-08-07T16:09:00Z,26.1914,-97.0507,28.7,11144222 
TABS,ioos:station:wmo:42044:1,2002-08-07T16:39:00Z,26.1914,-97.0507,28.9,11144222 
TABS,ioos:station:wmo:42044:1,2002-08-07T17:09:00Z,26.1914,-97.0507,29.2,11144222 
TABS,ioos:station:wmo:42044:1,2002-08-07T18:39:00Z,26.1914,-97.0507,29.0,11144222 
TABS,ioos:station:wmo:42044:1,2002-08-07T19:09:00Z,26.1914,-97.0507,29.0,11144222 
TABS,ioos:station:wmo:42044:1,2002-08-07T19:39:00Z,26.1914,-97.0507,29.1,11144222 
TABS,ioos:station:wmo:42044:1,2002-08-07T20:39:00Z,26.1914,-97.0507,29.2,11144222 
TABS,ioos:station:wmo:42044:1,2002-08-07T22:09:00Z,26.1914,-97.0507,29.5,11144222 
TABS,ioos:station:wmo:42044:1,2002-08-07T22:39:00Z,26.1914,-97.0507,29.5,11144222 
TABS,ioos:station:wmo:42044:1,2002-08-08T00:39:00Z,26.1914,-97.0507,29.4,11144222 
TABS,ioos:station:wmo:42044:1,2002-08-08T01:39:00Z,26.1914,-97.0507,29.2,11144222 
TABS,ioos:station:wmo:42044:1,2002-08-08T04:09:00Z,26.1914,-97.0507,29.2,11144222 
TABS,ioos:station:wmo:42044:1,2002-08-08T05:09:00Z,26.1914,-97.0507,29.1,11144222 
TABS,ioos:station:wmo:42044:1,2002-08-08T05:39:00Z,26.1914,-97.0507,29.1,11144222 
TABS,ioos:station:wmo:42044:1,2002-08-08T06:09:00Z,26.1914,-97.0507,29.1,11144222 
TABS,ioos:station:wmo:42044:1,2002-08-08T06:39:00Z,26.1914,-97.0507,29.0,11144222 
TABS,ioos:station:wmo:42044:1,2002-08-08T07:39:00Z,26.1914,-97.0507,28.7,11144222 
TABS,ioos:station:wmo:42044:1,2002-08-08T09:09:00Z,26.1914,-97.0507,28.6,11144222 
TABS,ioos:station:wmo:42044:1,2002-08-08T09:39:00Z,26.1914,-97.0507,28.5,11144222 
TABS,ioos:station:wmo:42044:1,2002-08-08T10:09:00Z,26.1914,-97.0507,28.5,11144222 
TABS,ioos:station:wmo:42044:1,2002-08-08T11:09:00Z,26.1914,-97.0507,28.4,11144222 
TABS,ioos:station:wmo:42044:1,2002-08-08T11:39:00Z,26.1914,-97.0507,28.3,11144222 
TABS,ioos:station:wmo:42044:1,2002-08-08T12:09:00Z,26.1914,-97.0507,28.2,11144222 
TABS,ioos:station:wmo:42044:1,2002-08-08T15:09:00Z,26.1914,-97.0507,28.4,11144222 
TABS,ioos:station:wmo:42044:1,2002-08-08T15:39:00Z,26.1914,-97.0507,29.2,11144222 
TABS,ioos:station:wmo:42044:1,2002-08-08T16:09:00Z,26.1914,-97.0507,29.3,11144222 
TABS,ioos:station:wmo:42044:1,2002-08-08T17:09:00Z,26.1914,-97.0507,29.0,11144222 
TABS,ioos:station:wmo:42044:1,2002-08-08T18:39:00Z,26.1914,-97.0507,29.4,11144222 
TABS,ioos:station:wmo:42044:1,2002-08-08T19:09:00Z,26.1914,-97.0507,29.6,11144222 
TABS,ioos:station:wmo:42044:1,2002-08-08T20:09:00Z,26.1914,-97.0507,30.0,11144222 
TABS,ioos:station:wmo:42044:1,2002-08-08T20:39:00Z,26.1914,-97.0507,30.0,11144222 
TABS,ioos:station:wmo:42044:1,2002-08-08T22:39:00Z,26.1914,-97.0507,30.0,11144222 
TABS,ioos:station:wmo:42044:1,2002-08-09T01:39:00Z,26.1914,-97.0507,29.0,11144222 
TABS,ioos:station:wmo:42044:1,2002-08-09T03:39:00Z,26.1914,-97.0507,29.3,11144222 
TABS,ioos:station:wmo:42044:1,2002-08-09T05:09:00Z,26.1914,-97.0507,29.2,11144222 
TABS,ioos:station:wmo:42044:1,2002-08-09T05:39:00Z,26.1914,-97.0507,29.0,11144222 
TABS,ioos:station:wmo:42044:1,2002-08-09T09:09:00Z,26.1914,-97.0507,28.7,11144222 
TABS,ioos:station:wmo:42044:1,2002-08-09T09:39:00Z,26.1914,-97.0507,28.7,11144222 
TABS,ioos:station:wmo:42044:1,2002-08-09T10:09:00Z,26.1914,-97.0507,28.6,11144222 
TABS,ioos:station:wmo:42044:1,2002-08-09T10:39:00Z,26.1914,-97.0507,28.7,11144222 
TABS,ioos:station:wmo:42044:1,2002-08-09T11:09:00Z,26.1914,-97.0507,28.7,11144222 
TABS,ioos:station:wmo:42044:1,2002-08-09T11:39:00Z,26.1914,-97.0507,28.7,11144222 
TABS,ioos:station:wmo:42044:1,2002-08-09T12:09:00Z,26.1914,-97.0507,28.6,11144222 
TABS,ioos:station:wmo:42044:1,2002-08-09T13:09:00Z,26.1914,-97.0507,28.5,11144222 
TABS,ioos:station:wmo:42044:1,2002-08-09T13:39:00Z,26.1914,-97.0507,28.6,11144222 
TABS,ioos:station:wmo:42044:1,2002-08-09T15:09:00Z,26.1914,-97.0507,28.8,11144222 
TABS,ioos:station:wmo:42044:1,2002-08-09T17:09:00Z,26.1914,-97.0507,29.1,11144222 
TABS,ioos:station:wmo:42044:1,2002-08-09T17:39:00Z,26.1914,-97.0507,28.8,11144222 
TABS,ioos:station:wmo:42044:1,2002-08-09T18:09:00Z,26.1914,-97.0507,28.8,11144222 
TABS,ioos:station:wmo:42044:1,2002-08-09T18:39:00Z,26.1914,-97.0507,28.9,11144222 
TABS,ioos:station:wmo:42044:1,2002-08-09T19:09:00Z,26.1914,-97.0507,29.1,11144222 
TABS,ioos:station:wmo:42044:1,2002-08-09T20:39:00Z,26.1914,-97.0507,28.9,11144222 
TABS,ioos:station:wmo:42044:1,2002-08-09T21:39:00Z,26.1914,-97.0507,29.1,11144222 
TABS,ioos:station:wmo:42044:1,2002-08-09T22:39:00Z,26.1914,-97.0507,29.2,11144222 
TABS,ioos:station:wmo:42044:1,2002-08-09T23:39:00Z,26.1914,-97.0507,29.3,11144222 
TABS,ioos:station:wmo:42044:1,2002-08-10T01:39:00Z,26.1914,-97.0507,29.2,11144222 
TABS,ioos:station:wmo:42044:1,2002-08-10T03:09:00Z,26.1914,-97.0507,29.2,11144222 
TABS,ioos:station:wmo:42044:1,2002-08-10T03:39:00Z,26.1914,-97.0507,29.1,11144222 
TABS,ioos:station:wmo:42044:1,2002-08-10T04:39:00Z,26.1914,-97.0507,29.1,11144222 
TABS,ioos:station:wmo:42044:1,2002-08-10T06:39:00Z,26.1914,-97.0507,29.0,11144222 
TABS,ioos:station:wmo:42044:1,2002-08-10T08:09:00Z,26.1914,-97.0507,28.8,11144222 
TABS,ioos:station:wmo:42044:1,2002-08-10T08:39:00Z,26.1914,-97.0507,29.0,11144222 
TABS,ioos:station:wmo:42044:1,2002-08-10T09:09:00Z,26.1914,-97.0507,28.9,11144222 
TABS,ioos:station:wmo:42044:1,2002-08-10T09:39:00Z,26.1914,-97.0507,28.9,11144222 
TABS,ioos:station:wmo:42044:1,2002-08-10T10:09:00Z,26.1914,-97.0507,28.5,11144222 
TABS,ioos:station:wmo:42044:1,2002-08-10T10:39:00Z,26.1914,-97.0507,28.7,11144222 
TABS,ioos:station:wmo:42044:1,2002-08-10T13:39:00Z,26.1914,-97.0507,28.7,11144222 
TABS,ioos:station:wmo:42044:1,2002-08-10T14:39:00Z,26.1914,-97.0507,28.1,11144222 
TABS,ioos:station:wmo:42044:1,2002-08-10T15:09:00Z,26.1914,-97.0507,28.6,11144222 
TABS,ioos:station:wmo:42044:1,2002-08-10T16:09:00Z,26.1914,-97.0507,28.5,11144222 
TABS,ioos:station:wmo:42044:1,2002-08-10T17:39:00Z,26.1914,-97.0507,28.9,11144222 
TABS,ioos:station:wmo:42044:1,2002-08-10T18:39:00Z,26.1914,-97.0507,28.9,11144222 
TABS,ioos:station:wmo:42044:1,2002-08-10T20:09:00Z,26.1914,-97.0507,29.1,11144222 
TABS,ioos:station:wmo:42044:1,2002-08-10T20:39:00Z,26.1914,-97.0507,29.2,11144222 
TABS,ioos:station:wmo:42044:1,2002-08-10T23:09:00Z,26.1914,-97.0507,29.6,11144222 
TABS,ioos:station:wmo:42044:1,2002-08-10T23:39:00Z,26.1914,-97.0507,29.6,11144222 
TABS,ioos:station:wmo:42044:1,2002-08-11T00:09:00Z,26.1914,-97.0507,29.7,11144222 
TABS,ioos:station:wmo:42044:1,2002-08-11T00:39:00Z,26.1914,-97.0507,29.5,11144222 
TABS,ioos:station:wmo:42044:1,2002-08-11T01:09:00Z,26.1914,-97.0507,29.3,11144222 
TABS,ioos:station:wmo:42044:1,2002-08-11T01:39:00Z,26.1914,-97.0507,29.3,11144222 
TABS,ioos:station:wmo:42044:1,2002-08-11T03:09:00Z,26.1914,-97.0507,29.2,11144222 
TABS,ioos:station:wmo:42044:1,2002-08-11T03:39:00Z,26.1914,-97.0507,29.1,11144222 
TABS,ioos:station:wmo:42044:1,2002-08-11T05:09:00Z,26.1914,-97.0507,29.0,11144222 
TABS,ioos:station:wmo:42044:1,2002-08-11T05:39:00Z,26.1914,-97.0507,28.9,11144222 
TABS,ioos:station:wmo:42044:1,2002-08-11T07:09:00Z,26.1914,-97.0507,29.1,11144222 
TABS,ioos:station:wmo:42044:1,2002-08-11T08:09:00Z,26.1914,-97.0507,29.0,11144222 
TABS,ioos:station:wmo:42044:1,2002-08-11T08:39:00Z,26.1914,-97.0507,28.9,11144222 
TABS,ioos:station:wmo:42044:1,2002-08-11T11:09:00Z,26.1914,-97.0507,28.3,11144222 
TABS,ioos:station:wmo:42044:1,2002-08-11T12:09:00Z,26.1914,-97.0507,28.5,11144222 
TABS,ioos:station:wmo:42044:1,2002-08-11T12:39:00Z,26.1914,-97.0507,28.7,11144222 
TABS,ioos:station:wmo:42044:1,2002-08-11T13:09:00Z,26.1914,-97.0507,28.5,11144222 
TABS,ioos:station:wmo:42044:1,2002-08-11T13:39:00Z,26.1914,-97.0507,28.6,11144222 
TABS,ioos:station:wmo:42044:1,2002-08-11T14:09:00Z,26.1914,-97.0507,28.6,11144222 
TABS,ioos:station:wmo:42044:1,2002-08-11T14:39:00Z,26.1914,-97.0507,28.7,11144222 
TABS,ioos:station:wmo:42044:1,2002-08-11T15:09:00Z,26.1914,-97.0507,28.7,11144222 
TABS,ioos:station:wmo:42044:1,2002-08-11T17:09:00Z,26.1914,-97.0507,29.0,11144222 
TABS,ioos:station:wmo:42044:1,2002-08-11T19:09:00Z,26.1914,-97.0507,29.4,11144222 
TABS,ioos:station:wmo:42044:1,2002-08-11T20:39:00Z,26.1914,-97.0507,29.5,11144222 
TABS,ioos:station:wmo:42044:1,2002-08-11T22:39:00Z,26.1914,-97.0507,29.9,11144222 
TABS,ioos:station:wmo:42044:1,2002-08-12T01:09:00Z,26.1914,-97.0507,29.8,11144222 
TABS,ioos:station:wmo:42044:1,2002-08-12T01:39:00Z,26.1914,-97.0507,29.5,11144222 
TABS,ioos:station:wmo:42044:1,2002-08-12T03:09:00Z,26.1914,-97.0507,28.9,11144222 
TABS,ioos:station:wmo:42044:1,2002-08-12T04:39:00Z,26.1914,-97.0507,28.8,11144222 
TABS,ioos:station:wmo:42044:1,2002-08-12T05:39:00Z,26.1914,-97.0507,28.3,11144222 
TABS,ioos:station:wmo:42044:1,2002-08-12T07:09:00Z,26.1914,-97.0507,28.6,11144222 
TABS,ioos:station:wmo:42044:1,2002-08-12T07:39:00Z,26.1914,-97.0507,28.6,11144222 
TABS,ioos:station:wmo:42044:1,2002-08-12T08:09:00Z,26.1914,-97.0507,28.8,11144222 
TABS,ioos:station:wmo:42044:1,2002-08-12T08:39:00Z,26.1914,-97.0507,28.8,11144222 
TABS,ioos:station:wmo:42044:1,2002-08-12T09:09:00Z,26.1914,-97.0507,29.0,11144222 
TABS,ioos:station:wmo:42044:1,2002-08-12T09:39:00Z,26.1914,-97.0507,29.0,11144222 
TABS,ioos:station:wmo:42044:1,2002-08-12T10:09:00Z,26.1914,-97.0507,29.2,11144222 
TABS,ioos:station:wmo:42044:1,2002-08-12T10:39:00Z,26.1914,-97.0507,27.1,11144222 
TABS,ioos:station:wmo:42044:1,2002-08-12T11:09:00Z,26.1914,-97.0507,26.1,11144222 
TABS,ioos:station:wmo:42044:1,2002-08-12T11:39:00Z,26.1914,-97.0507,27.9,11144222 
TABS,ioos:station:wmo:42044:1,2002-08-12T13:09:00Z,26.1914,-97.0507,28.2,11144222 
TABS,ioos:station:wmo:42044:1,2002-08-12T13:39:00Z,26.1914,-97.0507,28.4,11144222 
TABS,ioos:station:wmo:42044:1,2002-08-12T15:39:00Z,26.1914,-97.0507,28.2,11144222 
TABS,ioos:station:wmo:42044:1,2002-08-12T17:09:00Z,26.1914,-97.0507,28.4,11144222 
TABS,ioos:station:wmo:42044:1,2002-08-12T18:09:00Z,26.1914,-97.0507,28.3,11144222 
TABS,ioos:station:wmo:42044:1,2002-08-12T18:39:00Z,26.1914,-97.0507,28.4,11144222 
TABS,ioos:station:wmo:42044:1,2002-08-12T20:39:00Z,26.1914,-97.0507,28.6,11144222 
TABS,ioos:station:wmo:42044:1,2002-08-12T21:39:00Z,26.1914,-97.0507,28.4,11144222 
TABS,ioos:station:wmo:42044:1,2002-08-12T22:39:00Z,26.1914,-97.0507,28.6,11144222 
TABS,ioos:station:wmo:42044:1,2002-08-13T03:39:00Z,26.1914,-97.0507,28.7,11144222 
TABS,ioos:station:wmo:42044:1,2002-08-13T04:39:00Z,26.1914,-97.0507,28.8,11144222 
TABS,ioos:station:wmo:42044:1,2002-08-13T05:39:00Z,26.1914,-97.0507,28.8,11144222 
TABS,ioos:station:wmo:42044:1,2002-08-13T06:09:00Z,26.1914,-97.0507,28.9,11144222 
TABS,ioos:station:wmo:42044:1,2002-08-13T06:39:00Z,26.1914,-97.0507,29.0,11144222 
TABS,ioos:station:wmo:42044:1,2002-08-13T07:39:00Z,26.1914,-97.0507,29.1,11144222 
TABS,ioos:station:wmo:42044:1,2002-08-13T08:09:00Z,26.1914,-97.0507,29.1,11144222 
TABS,ioos:station:wmo:42044:1,2002-08-13T10:39:00Z,26.1914,-97.0507,29.0,11144222 
TABS,ioos:station:wmo:42044:1,2002-08-13T11:09:00Z,26.1914,-97.0507,29.1,11144222 
TABS,ioos:station:wmo:42044:1,2002-08-13T11:39:00Z,26.1914,-97.0507,28.8,11144222 
TABS,ioos:station:wmo:42044:1,2002-08-13T12:39:00Z,26.1914,-97.0507,29.0,11144222 
TABS,ioos:station:wmo:42044:1,2002-08-13T14:09:00Z,26.1914,-97.0507,29.1,11144222 
TABS,ioos:station:wmo:42044:1,2002-08-13T17:09:00Z,26.1914,-97.0507,29.3,11144222 
TABS,ioos:station:wmo:42044:1,2002-08-13T19:39:00Z,26.1914,-97.0507,28.2,11144222 
TABS,ioos:station:wmo:42044:1,2002-08-13T21:39:00Z,26.1914,-97.0507,28.6,11144222 
TABS,ioos:station:wmo:42044:1,2002-08-13T22:09:00Z,26.1914,-97.0507,28.5,11144222 
TABS,ioos:station:wmo:42044:1,2002-08-13T23:39:00Z,26.1914,-97.0507,28.7,11144222 
TABS,ioos:station:wmo:42044:1,2002-08-14T01:09:00Z,26.1914,-97.0507,28.8,11144222 
TABS,ioos:station:wmo:42044:1,2002-08-14T01:39:00Z,26.1914,-97.0507,28.6,11144222 
TABS,ioos:station:wmo:42044:1,2002-08-14T02:09:00Z,26.1914,-97.0507,28.4,11144222 